Location: Caltech
(34.1382°N, 118.1253°W)
Time: 20:28:45
(UTC-07:00)

Uosat F - Visible Passes

Search period start: 24 October 2014 00:00
Search period end: 02 November 2014 23:00
Orbit: 752 x 761 km, 98.7° (Epoch: 23 October)

Date Brightness Start Highest point End Pass type
(mag) Time Alt. Az. Time Alt. Az. Time Alt. Az.
24 Oct 12.7 04:41:57 10° NE 04:46:28 32° E 04:50:57 10° SSE visible
24 Oct 12.1 06:21:02 10° NNW 06:25:02 24° WNW 06:29:01 10° WSW visible
25 Oct 14.0 04:04:58 10° ENE 04:07:02 12° E 04:09:06 10° ESE visible
25 Oct 11.0 05:41:10 10° N 05:46:08 60° WNW 05:51:05 10° SSW visible
26 Oct 11.8 05:02:05 10° NNE 05:07:02 53° E 05:11:56 10° S visible
26 Oct 12.6 06:42:27 10° NNW 06:45:19 15° WNW 06:48:11 10° W visible
27 Oct 13.4 04:23:58 10° NE 04:27:42 21° E 04:31:25 10° SE visible
27 Oct 11.6 06:01:55 10° N 06:06:32 37° WNW 06:11:07 10° SW visible
28 Oct 11.0 05:22:27 10° NNE 05:27:32 87° ESE 05:32:34 10° SSW visible
29 Oct 12.7 04:43:46 10° NE 04:48:19 33° E 04:52:49 10° SSE visible
29 Oct 12.1 06:22:55 10° NNW 06:26:52 24° WNW 06:30:48 10° WSW visible
30 Oct 14.0 04:06:40 10° ENE 04:08:53 13° E 04:11:05 10° ESE visible
30 Oct 11.1 05:43:01 10° N 05:47:58 58° WNW 05:52:53 10° SSW visible
31 Oct 11.7 05:03:54 10° NNE 05:08:51 55° E 05:13:46 10° S visible
31 Oct 12.6 06:44:21 10° NNW 06:47:08 15° WNW 06:49:54 10° W visible
01 Nov 13.4 04:25:44 10° NE 04:29:32 21° E 04:33:18 10° SE visible
01 Nov 11.6 06:03:46 10° N 06:08:21 36° WNW 06:12:54 10° SW visible
02 Nov 11.0 04:24:16 10° NNE 04:29:21 89° ESE 04:34:22 10° SSW visible
